Location: Zagreb
(45.8000°N, 16.0000°E)
Time: 19:54:19
(UTC+01:00)

ISS - Visible Passes

Search period start: 24 March 2023 00:00
Search period end: 03 April 2023 01:00
Orbit: 414 x 422 km, 51.6° (Epoch: 24 March)

Date Brightness Start Highest point End Pass type
(mag) Time Alt. Az. Time Alt. Az. Time Alt. Az.
24 Mar -2.3 18:42:34 10° WNW 18:45:39 32° N 18:48:43 10° NE visible
24 Mar -2.3 20:19:56 10° NW 20:22:45 32° N 20:22:45 32° N visible
25 Mar -2.3 19:31:57 10° WNW 19:34:57 29° N 19:36:46 18° NE visible
25 Mar -0.8 21:08:47 10° WNW 21:09:42 17° NW 21:09:42 17° NW visible
26 Mar -2.2 19:43:53 10° WNW 19:46:51 28° N 19:49:50 10° ENE visible
26 Mar -2.8 21:20:52 10° WNW 21:23:41 44° N 21:23:41 44° N visible
27 Mar -2.8 20:32:54 10° NW 20:36:04 37° NNE 20:37:38 23° ENE visible
27 Mar -0.9 22:09:39 10° WNW 22:10:34 17° WNW 22:10:34 17° WNW visible
28 Mar -2.5 19:44:52 10° NW 19:47:55 32° N 19:50:59 10° ENE visible
28 Mar -3.4 21:21:37 10° WNW 21:24:30 63° WNW 21:24:30 63° WNW visible
29 Mar -3.6 20:33:34 10° WNW 20:36:55 64° NNE 20:38:26 29° E visible
29 Mar -0.8 22:10:44 10° W 22:11:22 14° W 22:11:22 14° W visible
30 Mar -2.7 21:22:23 10° WNW 21:25:19 36° SW 21:25:19 36° SW visible
31 Mar -3.4 20:34:09 10° WNW 20:37:28 59° SSW 20:39:17 23° SE visible
01 Apr -1.4 21:23:40 10° W 21:25:40 15° SW 21:26:13 15° SW visible
02 Apr -1.8 20:34:55 10° W 20:37:41 24° SW 20:40:16 11° SSE visible
